Year,Month,Day,Hour,Minute,Value (Times are PST for temperature in C)
2010,08,17,00,00,23.10
2010,08,17,00,01,23.10
2010,08,17,00,02,23.10
2010,08,17,00,03,23.10
2010,08,17,00,04,23.10
2010,08,17,00,05,23.00
2010,08,17,00,06,23.10
2010,08,17,00,07,23.10
2010,08,17,00,08,23.10
2010,08,17,00,09,23.20
2010,08,17,00,10,23.20
2010,08,17,00,11,23.20
2010,08,17,00,12,23.20
2010,08,17,00,13,23.20
2010,08,17,00,14,23.20
2010,08,17,00,15,23.20
2010,08,17,00,16,23.20
2010,08,17,00,17,23.10
2010,08,17,00,18,23.10
2010,08,17,00,19,23.10
2010,08,17,00,20,23.10
2010,08,17,00,21,23.00
2010,08,17,00,22,23.00
2010,08,17,00,23,22.90
2010,08,17,00,24,22.80
2010,08,17,00,25,22.80
2010,08,17,00,26,22.70
2010,08,17,00,27,22.60
2010,08,17,00,28,22.60
2010,08,17,00,29,22.50
2010,08,17,00,30,22.40
2010,08,17,00,31,22.30
2010,08,17,00,32,22.20
2010,08,17,00,33,22.20
2010,08,17,00,34,22.10
2010,08,17,00,35,22.00
2010,08,17,00,36,22.00
2010,08,17,00,37,21.90
2010,08,17,00,38,21.90
2010,08,17,00,39,21.80
2010,08,17,00,40,21.80
2010,08,17,00,41,21.80
2010,08,17,00,42,21.80
2010,08,17,00,43,21.80
2010,08,17,00,44,21.80
2010,08,17,00,45,21.80
2010,08,17,00,46,21.80
2010,08,17,00,47,21.80
2010,08,17,00,48,21.80
2010,08,17,00,49,21.80
2010,08,17,00,50,21.80
2010,08,17,00,51,21.90
2010,08,17,00,52,21.90
2010,08,17,00,53,21.90
2010,08,17,00,54,22.00
2010,08,17,00,55,22.10
2010,08,17,00,56,22.10
2010,08,17,00,57,22.10
2010,08,17,00,58,22.10
2010,08,17,00,59,22.10
2010,08,17,01,00,22.20
2010,08,17,01,01,22.20
2010,08,17,01,02,22.20
2010,08,17,01,03,22.20
2010,08,17,01,04,22.20
2010,08,17,01,05,22.20
2010,08,17,01,06,22.20
2010,08,17,01,07,22.20
2010,08,17,01,08,22.30
2010,08,17,01,09,22.30
2010,08,17,01,10,22.30
2010,08,17,01,11,22.30
2010,08,17,01,12,22.40
2010,08,17,01,13,22.40
2010,08,17,01,14,22.50
2010,08,17,01,15,22.50
2010,08,17,01,16,22.50
2010,08,17,01,17,22.50
2010,08,17,01,18,22.50
2010,08,17,01,19,22.50
2010,08,17,01,20,22.40
2010,08,17,01,21,22.40
2010,08,17,01,22,22.40
2010,08,17,01,23,22.30
2010,08,17,01,24,22.30
2010,08,17,01,25,22.30
2010,08,17,01,26,22.30
2010,08,17,01,27,22.30
2010,08,17,01,28,22.20
2010,08,17,01,29,22.20
2010,08,17,01,30,22.20
2010,08,17,01,31,22.20
2010,08,17,01,32,22.20
2010,08,17,01,33,22.20
2010,08,17,01,34,22.10
2010,08,17,01,35,22.10
2010,08,17,01,36,22.10
2010,08,17,01,37,22.10
2010,08,17,01,38,22.10
2010,08,17,01,39,22.10
2010,08,17,01,40,22.10
2010,08,17,01,41,22.10
2010,08,17,01,42,22.10
2010,08,17,01,43,22.10
2010,08,17,01,44,22.10
2010,08,17,01,45,22.10
2010,08,17,01,46,22.10
2010,08,17,01,47,22.10
2010,08,17,01,48,22.10
2010,08,17,01,49,22.10
2010,08,17,01,50,22.20
2010,08,17,01,51,22.20
2010,08,17,01,52,22.20
2010,08,17,01,53,22.10
2010,08,17,01,54,22.10
2010,08,17,01,55,22.20
2010,08,17,01,56,22.20
2010,08,17,01,57,22.30
2010,08,17,01,58,22.40
2010,08,17,01,59,22.50
2010,08,17,02,00,22.50
2010,08,17,02,01,22.50
2010,08,17,02,02,22.50
2010,08,17,02,03,22.50
2010,08,17,02,04,22.50
2010,08,17,02,05,22.50
2010,08,17,02,06,22.50
2010,08,17,02,07,22.50
2010,08,17,02,08,22.50
2010,08,17,02,09,22.50
2010,08,17,02,10,22.40
2010,08,17,02,11,22.40
2010,08,17,02,12,22.40
2010,08,17,02,13,22.40
2010,08,17,02,14,22.40
2010,08,17,02,15,22.40
2010,08,17,02,16,22.50
2010,08,17,02,17,22.60
2010,08,17,02,18,22.60
2010,08,17,02,19,22.70
2010,08,17,02,20,22.80
2010,08,17,02,21,22.80
2010,08,17,02,22,22.90
2010,08,17,02,23,22.90
2010,08,17,02,24,22.90
2010,08,17,02,25,22.90
2010,08,17,02,26,22.90
2010,08,17,02,27,22.90
2010,08,17,02,28,22.90
2010,08,17,02,29,22.90
2010,08,17,02,30,22.90
2010,08,17,02,31,22.90
2010,08,17,02,32,22.90
2010,08,17,02,33,22.90
2010,08,17,02,34,22.90
2010,08,17,02,35,22.90
2010,08,17,02,36,22.90
2010,08,17,02,37,22.90
2010,08,17,02,38,23.00
2010,08,17,02,39,23.00
2010,08,17,02,40,23.10
2010,08,17,02,41,23.10
2010,08,17,02,42,23.10
2010,08,17,02,43,23.10
2010,08,17,02,44,23.10
2010,08,17,02,45,23.00
2010,08,17,02,46,23.00
2010,08,17,02,47,22.90
2010,08,17,02,48,22.90
2010,08,17,02,49,22.90
2010,08,17,02,50,22.80
2010,08,17,02,51,22.80
2010,08,17,02,52,22.80
2010,08,17,02,53,22.80
2010,08,17,02,54,22.80
2010,08,17,02,55,22.80
2010,08,17,02,56,22.80
2010,08,17,02,57,22.70
2010,08,17,02,58,22.70
2010,08,17,02,59,22.70
2010,08,17,03,00,22.70
2010,08,17,03,01,22.70
2010,08,17,03,02,22.70
2010,08,17,03,03,22.70
2010,08,17,03,04,22.70
2010,08,17,03,05,22.60
2010,08,17,03,06,22.60
2010,08,17,03,07,22.60
2010,08,17,03,08,22.60
2010,08,17,03,09,22.60
2010,08,17,03,10,22.50
2010,08,17,03,11,22.50
2010,08,17,03,12,22.40
2010,08,17,03,13,22.40
2010,08,17,03,14,22.40
2010,08,17,03,15,22.30
2010,08,17,03,16,22.30
2010,08,17,03,17,22.30
2010,08,17,03,18,22.30
2010,08,17,03,19,22.30
2010,08,17,03,20,22.30
2010,08,17,03,21,22.30
2010,08,17,03,22,22.30
2010,08,17,03,23,22.30
2010,08,17,03,24,22.30
2010,08,17,03,25,22.30
2010,08,17,03,26,22.30
2010,08,17,03,27,22.40
2010,08,17,03,28,22.40
2010,08,17,03,29,22.40
2010,08,17,03,30,22.40
2010,08,17,03,31,22.40
2010,08,17,03,32,22.40
2010,08,17,03,33,22.40
2010,08,17,03,34,22.30
2010,08,17,03,35,22.30
2010,08,17,03,36,22.30
2010,08,17,03,37,22.30
2010,08,17,03,38,22.20
2010,08,17,03,39,22.20
2010,08,17,03,40,22.20
2010,08,17,03,41,22.20
2010,08,17,03,42,22.20
2010,08,17,03,43,22.20
2010,08,17,03,44,22.20
2010,08,17,03,45,22.20
2010,08,17,03,46,22.10
2010,08,17,03,47,22.10
2010,08,17,03,48,22.10
2010,08,17,03,49,22.00
2010,08,17,03,50,22.00
2010,08,17,03,51,21.90
2010,08,17,03,52,21.90
2010,08,17,03,53,21.90
2010,08,17,03,54,21.90
2010,08,17,03,55,21.90
2010,08,17,03,56,21.90
2010,08,17,03,57,21.90
2010,08,17,03,58,21.90
2010,08,17,03,59,21.90
2010,08,17,04,00,21.90
2010,08,17,04,01,21.90
2010,08,17,04,02,21.80
2010,08,17,04,03,21.80
2010,08,17,04,04,21.80
2010,08,17,04,05,21.80
2010,08,17,04,06,21.70
2010,08,17,04,07,21.70
2010,08,17,04,08,21.70
2010,08,17,04,09,21.60
2010,08,17,04,10,21.60
2010,08,17,04,11,21.60
2010,08,17,04,12,21.60
2010,08,17,04,13,21.60
2010,08,17,04,14,21.60
2010,08,17,04,15,21.60
2010,08,17,04,16,21.60
2010,08,17,04,17,21.60
2010,08,17,04,18,21.60
2010,08,17,04,19,21.60
2010,08,17,04,20,21.60
2010,08,17,04,21,21.60
2010,08,17,04,22,21.60
2010,08,17,04,23,21.60
2010,08,17,04,24,21.60
2010,08,17,04,25,21.60
2010,08,17,04,26,21.60
2010,08,17,04,27,21.60
2010,08,17,04,28,21.60
2010,08,17,04,29,21.60
2010,08,17,04,30,21.60
2010,08,17,04,31,21.60
2010,08,17,04,32,21.60
2010,08,17,04,33,21.60
2010,08,17,04,34,21.50
2010,08,17,04,35,21.50
2010,08,17,04,36,21.50
2010,08,17,04,37,21.40
2010,08,17,04,38,21.40
2010,08,17,04,39,21.40
2010,08,17,04,40,21.40
2010,08,17,04,41,21.40
2010,08,17,04,42,21.40
2010,08,17,04,43,21.30
2010,08,17,04,44,21.30
2010,08,17,04,45,21.30
2010,08,17,04,46,21.30
2010,08,17,04,47,21.20
2010,08,17,04,48,21.20
2010,08,17,04,49,21.20
2010,08,17,04,50,21.20
2010,08,17,04,51,21.20
2010,08,17,04,52,21.10
2010,08,17,04,53,21.10
2010,08,17,04,54,21.10
2010,08,17,04,55,21.10
2010,08,17,04,56,21.10
2010,08,17,04,57,21.20
2010,08,17,04,58,21.20
2010,08,17,04,59,21.20
2010,08,17,05,00,21.20
2010,08,17,05,01,21.20
2010,08,17,05,02,21.20
2010,08,17,05,03,21.20
2010,08,17,05,04,21.20
2010,08,17,05,05,21.20
2010,08,17,05,06,21.20
2010,08,17,05,07,21.20
2010,08,17,05,08,21.20
2010,08,17,05,09,21.20
2010,08,17,05,10,21.10
2010,08,17,05,11,21.10
2010,08,17,05,12,21.10
2010,08,17,05,13,21.10
2010,08,17,05,14,21.10
2010,08,17,05,15,21.10
2010,08,17,05,16,21.10
2010,08,17,05,17,21.10
2010,08,17,05,18,21.10
2010,08,17,05,19,21.10
2010,08,17,05,20,21.10
2010,08,17,05,21,21.00
2010,08,17,05,22,21.00
2010,08,17,05,23,20.90
2010,08,17,05,24,20.90
2010,08,17,05,25,20.90
2010,08,17,05,26,20.80
2010,08,17,05,27,20.80
2010,08,17,05,28,20.80
2010,08,17,05,29,20.70
2010,08,17,05,30,20.70
2010,08,17,05,31,20.70
2010,08,17,05,32,20.60
2010,08,17,05,33,20.60
2010,08,17,05,34,20.60
2010,08,17,05,35,20.50
2010,08,17,05,36,20.50
2010,08,17,05,37,20.40
2010,08,17,05,38,20.40
2010,08,17,05,39,20.40
2010,08,17,05,40,20.30
2010,08,17,05,41,20.30
2010,08,17,05,42,20.20
2010,08,17,05,43,20.20
2010,08,17,05,44,20.10
2010,08,17,05,45,20.10
2010,08,17,05,46,20.10
2010,08,17,05,47,20.00
2010,08,17,05,48,20.00
2010,08,17,05,49,20.00
2010,08,17,05,50,19.90
2010,08,17,05,51,19.90
2010,08,17,05,52,19.90
2010,08,17,05,53,19.90
2010,08,17,05,54,19.80
2010,08,17,05,55,19.80
2010,08,17,05,56,19.80
2010,08,17,05,57,19.80
2010,08,17,05,58,19.80
2010,08,17,05,59,19.80
2010,08,17,06,00,19.80
2010,08,17,06,01,19.80
2010,08,17,06,02,19.80
2010,08,17,06,03,19.70
2010,08,17,06,04,19.70
2010,08,17,06,05,19.70
2010,08,17,06,06,19.70
2010,08,17,06,07,19.60
2010,08,17,06,08,19.60
2010,08,17,06,09,19.60
2010,08,17,06,10,19.60
2010,08,17,06,11,19.60
2010,08,17,06,12,19.60
2010,08,17,06,13,19.60
2010,08,17,06,14,19.60
2010,08,17,06,15,19.60
2010,08,17,06,16,19.60
2010,08,17,06,17,19.60
2010,08,17,06,18,19.60
2010,08,17,06,19,19.60
2010,08,17,06,20,19.60
2010,08,17,06,21,19.60
2010,08,17,06,22,19.60
2010,08,17,06,23,19.60
2010,08,17,06,24,19.60
2010,08,17,06,25,19.60
2010,08,17,06,26,19.60
2010,08,17,06,27,19.50
2010,08,17,06,28,19.50
2010,08,17,06,29,19.40
2010,08,17,06,30,19.40
2010,08,17,06,31,19.40
2010,08,17,06,32,19.40
2010,08,17,06,33,19.40
2010,08,17,06,34,19.40
2010,08,17,06,35,19.40
2010,08,17,06,36,19.40
2010,08,17,06,37,19.40
2010,08,17,06,38,19.40
2010,08,17,06,39,19.40
2010,08,17,06,40,19.40
2010,08,17,06,41,19.40
2010,08,17,06,42,19.40
2010,08,17,06,43,19.40
2010,08,17,06,44,19.40
2010,08,17,06,45,19.40
2010,08,17,06,46,19.40
2010,08,17,06,47,19.40
2010,08,17,06,48,19.40
2010,08,17,06,49,19.40
2010,08,17,06,50,19.40
2010,08,17,06,51,19.40
2010,08,17,06,52,19.40
2010,08,17,06,53,19.40
2010,08,17,06,54,19.40
2010,08,17,06,55,19.40
2010,08,17,06,56,19.40
2010,08,17,06,57,19.40
2010,08,17,06,58,19.40
2010,08,17,06,59,19.40
2010,08,17,07,00,19.40
2010,08,17,07,01,19.50
2010,08,17,07,02,19.50
2010,08,17,07,03,19.60
2010,08,17,07,04,19.70
2010,08,17,07,05,19.70
2010,08,17,07,06,19.80
2010,08,17,07,07,19.80
2010,08,17,07,08,19.80
2010,08,17,07,09,19.90
2010,08,17,07,10,19.90
2010,08,17,07,11,19.90
2010,08,17,07,12,20.00
2010,08,17,07,13,20.00
2010,08,17,07,14,20.10
2010,08,17,07,15,20.10
2010,08,17,07,16,20.10
2010,08,17,07,17,20.10
2010,08,17,07,18,20.10
2010,08,17,07,19,20.10
2010,08,17,07,20,20.10
2010,08,17,07,21,20.10
2010,08,17,07,22,20.10
2010,08,17,07,23,20.20
2010,08,17,07,24,20.20
2010,08,17,07,25,20.20
2010,08,17,07,26,20.30
2010,08,17,07,27,20.30
2010,08,17,07,28,20.30
2010,08,17,07,29,20.40
2010,08,17,07,30,20.40
2010,08,17,07,31,20.40
2010,08,17,07,32,20.50
2010,08,17,07,33,20.50
2010,08,17,07,34,20.50
2010,08,17,07,35,20.60
2010,08,17,07,36,20.60
2010,08,17,07,37,20.70
2010,08,17,07,38,20.70
2010,08,17,07,39,20.70
2010,08,17,07,40,20.80
2010,08,17,07,41,20.90
2010,08,17,07,42,20.90
2010,08,17,07,43,21.00
2010,08,17,07,44,21.00
2010,08,17,07,45,21.10
2010,08,17,07,46,21.10
2010,08,17,07,47,21.10
2010,08,17,07,48,21.10
2010,08,17,07,49,21.10
2010,08,17,07,50,21.10
2010,08,17,07,51,21.10
2010,08,17,07,52,21.10
2010,08,17,07,53,21.10
2010,08,17,07,54,21.10
2010,08,17,07,55,21.20
2010,08,17,07,56,21.20
2010,08,17,07,57,21.20
2010,08,17,07,58,21.20
2010,08,17,07,59,21.20
2010,08,17,08,00,21.30
2010,08,17,08,01,21.30
2010,08,17,08,02,21.40
2010,08,17,08,03,21.40
2010,08,17,08,04,21.50
2010,08,17,08,05,21.50
2010,08,17,08,06,21.60
2010,08,17,08,07,21.60
2010,08,17,08,08,21.60
2010,08,17,08,09,21.60
2010,08,17,08,10,21.60
2010,08,17,08,11,21.60
2010,08,17,08,12,21.60
2010,08,17,08,13,21.60
2010,08,17,08,14,21.70
2010,08,17,08,15,21.70
2010,08,17,08,16,21.70
2010,08,17,08,17,21.80
2010,08,17,08,18,21.80
2010,08,17,08,19,21.80
2010,08,17,08,20,21.80
2010,08,17,08,21,21.80
2010,08,17,08,22,21.80
2010,08,17,08,23,21.80
2010,08,17,08,24,21.80
2010,08,17,08,25,21.80
2010,08,17,08,26,21.80
2010,08,17,08,27,21.80
2010,08,17,08,28,21.70
2010,08,17,08,29,21.70
2010,08,17,08,30,21.70
2010,08,17,08,31,21.70
2010,08,17,08,32,21.70
2010,08,17,08,33,21.70
2010,08,17,08,34,21.70
2010,08,17,08,35,21.70
2010,08,17,08,36,21.70
2010,08,17,08,37,21.60
2010,08,17,08,38,21.60
2010,08,17,08,39,21.60
2010,08,17,08,40,21.60
2010,08,17,08,41,21.60
2010,08,17,08,42,21.70
2010,08,17,08,43,21.80
2010,08,17,08,44,21.80
2010,08,17,08,45,21.80
2010,08,17,08,46,21.90
2010,08,17,08,47,21.90
2010,08,17,08,48,21.90
2010,08,17,08,49,22.00
2010,08,17,08,50,22.00
2010,08,17,08,51,22.10
2010,08,17,08,52,22.20
2010,08,17,08,53,22.20
2010,08,17,08,54,22.20
2010,08,17,08,55,22.20
2010,08,17,08,56,22.20
2010,08,17,08,57,22.20
2010,08,17,08,58,22.20
2010,08,17,08,59,22.20
2010,08,17,09,00,22.20
2010,08,17,09,01,22.20
2010,08,17,09,02,22.20
2010,08,17,09,03,22.20
2010,08,17,09,04,22.20
2010,08,17,09,05,22.20
2010,08,17,09,06,22.10
2010,08,17,09,07,22.10
2010,08,17,09,08,22.20
2010,08,17,09,09,22.20
2010,08,17,09,10,22.10
2010,08,17,09,11,22.10
2010,08,17,09,12,22.10
2010,08,17,09,13,22.10
2010,08,17,09,14,22.20
2010,08,17,09,15,22.30
2010,08,17,09,16,22.30
2010,08,17,09,17,22.40
2010,08,17,09,18,22.40
2010,08,17,09,19,22.40
2010,08,17,09,20,22.50
2010,08,17,09,21,22.50
2010,08,17,09,22,22.50
2010,08,17,09,23,22.60
2010,08,17,09,24,22.60
2010,08,17,09,25,22.70
2010,08,17,09,26,22.60
2010,08,17,09,27,22.60
2010,08,17,09,28,22.50
2010,08,17,09,29,22.50
2010,08,17,09,30,22.40
2010,08,17,09,31,22.40
2010,08,17,09,32,22.40
2010,08,17,09,33,22.40
2010,08,17,09,34,22.50
2010,08,17,09,35,22.50
2010,08,17,09,36,22.60
2010,08,17,09,37,22.50
2010,08,17,09,38,22.50
2010,08,17,09,39,22.60
2010,08,17,09,40,22.60
2010,08,17,09,41,22.60
2010,08,17,09,42,22.50
2010,08,17,09,43,22.40
2010,08,17,09,44,22.40
2010,08,17,09,45,22.40
2010,08,17,09,46,22.40
2010,08,17,09,47,22.40
2010,08,17,09,48,22.40
2010,08,17,09,49,22.40
2010,08,17,09,50,22.50
2010,08,17,09,51,22.50
2010,08,17,09,52,22.40
2010,08,17,09,53,22.30
2010,08,17,09,54,22.20
2010,08,17,09,55,22.10
2010,08,17,09,56,22.10
2010,08,17,09,57,22.10
2010,08,17,09,58,22.10
2010,08,17,09,59,22.10
2010,08,17,10,00,22.00
2010,08,17,10,01,22.00
2010,08,17,10,02,22.00
2010,08,17,10,03,22.00
2010,08,17,10,04,22.10
2010,08,17,10,05,22.10
2010,08,17,10,06,22.20
2010,08,17,10,07,22.30
2010,08,17,10,08,22.40
2010,08,17,10,09,22.50
2010,08,17,10,10,22.70
2010,08,17,10,11,22.80
2010,08,17,10,12,22.80
2010,08,17,10,13,22.80
2010,08,17,10,14,22.90
2010,08,17,10,15,22.80
2010,08,17,10,16,22.80
2010,08,17,10,17,22.80
2010,08,17,10,18,22.80
2010,08,17,10,19,22.90
2010,08,17,10,20,22.90
2010,08,17,10,21,22.90
2010,08,17,10,22,22.80
2010,08,17,10,23,22.70
2010,08,17,10,24,22.60
2010,08,17,10,25,22.60
2010,08,17,10,26,22.50
2010,08,17,10,27,22.40
2010,08,17,10,28,22.40
2010,08,17,10,29,22.40
2010,08,17,10,30,22.40
2010,08,17,10,31,22.30
2010,08,17,10,32,22.40
2010,08,17,10,33,22.40
2010,08,17,10,34,22.40
2010,08,17,10,35,22.50
2010,08,17,10,36,22.50
2010,08,17,10,37,22.50
2010,08,17,10,38,22.50
2010,08,17,10,39,22.60
2010,08,17,10,40,22.60
2010,08,17,10,41,22.60
2010,08,17,10,42,22.50
2010,08,17,10,43,22.50
2010,08,17,10,44,22.50
2010,08,17,10,45,22.50
2010,08,17,10,46,22.50
2010,08,17,10,47,22.50
2010,08,17,10,48,22.50
2010,08,17,10,49,22.50
2010,08,17,10,50,22.50
2010,08,17,10,51,22.50
2010,08,17,10,52,22.50
2010,08,17,10,53,22.50
2010,08,17,10,54,22.50
2010,08,17,10,55,22.50
2010,08,17,10,56,22.50
2010,08,17,10,57,22.50
2010,08,17,10,58,22.50
2010,08,17,10,59,22.60
2010,08,17,11,00,22.60
2010,08,17,11,01,22.70
2010,08,17,11,02,22.70
2010,08,17,11,03,22.80
2010,08,17,11,04,22.90
2010,08,17,11,05,23.00
2010,08,17,11,06,23.10
2010,08,17,11,07,23.20
2010,08,17,11,08,23.20
2010,08,17,11,09,23.30
2010,08,17,11,10,23.40
2010,08,17,11,11,23.50
2010,08,17,11,12,23.50
2010,08,17,11,13,23.50
2010,08,17,11,14,23.60
2010,08,17,11,15,23.70
2010,08,17,11,16,23.80
2010,08,17,11,17,23.90
2010,08,17,11,18,24.00
2010,08,17,11,19,24.10
2010,08,17,11,20,24.10
2010,08,17,11,21,24.20
2010,08,17,11,22,24.10
2010,08,17,11,23,24.00
2010,08,17,11,24,23.90
2010,08,17,11,25,23.90
2010,08,17,11,26,23.80
2010,08,17,11,27,23.80
2010,08,17,11,28,23.70
2010,08,17,11,29,23.70
2010,08,17,11,30,23.70
2010,08,17,11,31,23.70
2010,08,17,11,32,23.80
2010,08,17,11,33,23.80
2010,08,17,11,34,23.90
2010,08,17,11,35,23.90
2010,08,17,11,36,23.90
2010,08,17,11,37,23.90
2010,08,17,11,38,23.90
2010,08,17,11,39,23.90
2010,08,17,11,40,23.90
2010,08,17,11,41,23.80
2010,08,17,11,42,23.80
2010,08,17,11,43,23.80
2010,08,17,11,44,23.80
2010,08,17,11,45,23.80
2010,08,17,11,46,23.90
2010,08,17,11,47,24.00
2010,08,17,11,48,24.10
2010,08,17,11,49,24.20
2010,08,17,11,50,24.20
2010,08,17,11,51,24.10
2010,08,17,11,52,24.00
2010,08,17,11,53,24.00
2010,08,17,11,54,24.00
2010,08,17,11,55,24.10
2010,08,17,11,56,24.10
2010,08,17,11,57,24.10
2010,08,17,11,58,24.10
2010,08,17,11,59,24.00
2010,08,17,12,00,24.00
2010,08,17,12,01,23.90
2010,08,17,12,02,23.90
2010,08,17,12,03,23.80
2010,08,17,12,04,23.80
2010,08,17,12,05,23.90
2010,08,17,12,06,23.90
2010,08,17,12,07,23.90
2010,08,17,12,08,24.00
2010,08,17,12,09,24.10
2010,08,17,12,10,24.20
2010,08,17,12,11,24.20
2010,08,17,12,12,24.20
2010,08,17,12,13,24.40
2010,08,17,12,14,24.50
2010,08,17,12,15,24.70
2010,08,17,12,16,24.80
2010,08,17,12,17,24.90
2010,08,17,12,18,25.00
2010,08,17,12,19,25.10
2010,08,17,12,20,25.20
2010,08,17,12,21,25.20
2010,08,17,12,22,25.30
2010,08,17,12,23,25.30
2010,08,17,12,24,25.30
2010,08,17,12,25,25.30
2010,08,17,12,26,25.20
2010,08,17,12,27,25.20
2010,08,17,12,28,25.20
2010,08,17,12,29,25.20
2010,08,17,12,30,25.20
2010,08,17,12,31,25.30
2010,08,17,12,32,25.30
2010,08,17,12,33,25.30
2010,08,17,12,34,25.30
2010,08,17,12,35,25.30
2010,08,17,12,36,25.30
2010,08,17,12,37,25.30
2010,08,17,12,38,25.20
2010,08,17,12,39,25.10
2010,08,17,12,40,25.10
2010,08,17,12,41,25.00
2010,08,17,12,42,25.00
2010,08,17,12,43,25.00
2010,08,17,12,44,25.00
2010,08,17,12,45,25.10
2010,08,17,12,46,25.10
2010,08,17,12,47,25.20
2010,08,17,12,48,25.30
2010,08,17,12,49,25.40
2010,08,17,12,50,25.50
2010,08,17,12,51,25.60
2010,08,17,12,52,25.70
2010,08,17,12,53,25.70
2010,08,17,12,54,25.80
2010,08,17,12,55,25.90
2010,08,17,12,56,25.80
2010,08,17,12,57,25.80
2010,08,17,12,58,25.90
2010,08,17,12,59,25.80
2010,08,17,13,00,25.70
2010,08,17,13,01,25.70
2010,08,17,13,02,25.70
2010,08,17,13,03,25.70
2010,08,17,13,04,25.60
2010,08,17,13,05,25.70
2010,08,17,13,06,25.90
2010,08,17,13,07,25.90
2010,08,17,13,08,26.00
2010,08,17,13,09,26.10
2010,08,17,13,10,26.00
2010,08,17,13,11,25.90
2010,08,17,13,12,25.90
2010,08,17,13,13,25.80
2010,08,17,13,14,25.80
2010,08,17,13,15,25.70
2010,08,17,13,16,25.70
2010,08,17,13,17,25.60
2010,08,17,13,18,25.60
2010,08,17,13,19,25.60
2010,08,17,13,20,25.60
2010,08,17,13,21,25.50
2010,08,17,13,22,25.50
2010,08,17,13,23,25.60
2010,08,17,13,24,25.80
2010,08,17,13,25,25.90
2010,08,17,13,26,25.90
2010,08,17,13,27,25.80
2010,08,17,13,28,25.90
2010,08,17,13,29,25.90
2010,08,17,13,30,26.00
2010,08,17,13,31,26.20
2010,08,17,13,32,26.30
2010,08,17,13,33,26.20
2010,08,17,13,34,26.20
2010,08,17,13,35,26.10
2010,08,17,13,36,26.00
2010,08,17,13,37,25.90
2010,08,17,13,38,25.90
2010,08,17,13,39,26.00
2010,08,17,13,40,26.10
2010,08,17,13,41,26.10
2010,08,17,13,42,26.30
2010,08,17,13,43,26.40
2010,08,17,13,44,26.50
2010,08,17,13,45,26.50
2010,08,17,13,46,26.60
2010,08,17,13,47,26.60
2010,08,17,13,48,26.50
2010,08,17,13,49,26.50
2010,08,17,13,50,26.40
2010,08,17,13,51,26.40
2010,08,17,13,52,26.40
2010,08,17,13,53,26.20
2010,08,17,13,54,26.00
2010,08,17,13,55,25.90
2010,08,17,13,56,25.90
2010,08,17,13,57,26.00
2010,08,17,13,58,26.10
2010,08,17,13,59,26.20
2010,08,17,14,00,26.30
2010,08,17,14,01,26.40
2010,08,17,14,02,26.50
2010,08,17,14,03,26.60
2010,08,17,14,04,26.70
2010,08,17,14,05,26.70
2010,08,17,14,06,26.80
2010,08,17,14,07,26.90
2010,08,17,14,08,26.80
2010,08,17,14,09,26.80
2010,08,17,14,10,26.80
2010,08,17,14,11,26.90
2010,08,17,14,12,26.90
2010,08,17,14,13,27.00
2010,08,17,14,14,27.10
2010,08,17,14,15,27.10
2010,08,17,14,16,27.20
2010,08,17,14,17,27.30
2010,08,17,14,18,27.30
2010,08,17,14,19,27.30
2010,08,17,14,20,27.20
2010,08,17,14,21,27.20
2010,08,17,14,22,27.20
2010,08,17,14,23,27.10
2010,08,17,14,24,27.10
2010,08,17,14,25,27.10
2010,08,17,14,26,27.20
2010,08,17,14,27,27.30
2010,08,17,14,28,27.30
2010,08,17,14,29,27.40
2010,08,17,14,30,27.40
2010,08,17,14,31,27.30
2010,08,17,14,32,27.30
2010,08,17,14,33,27.30
2010,08,17,14,34,27.40
2010,08,17,14,35,27.40
2010,08,17,14,36,27.40
2010,08,17,14,37,27.30
2010,08,17,14,38,27.40
2010,08,17,14,39,27.40
2010,08,17,14,40,27.40
2010,08,17,14,41,27.40
2010,08,17,14,42,27.40
2010,08,17,14,43,27.50
2010,08,17,14,44,27.70
2010,08,17,14,45,27.70
2010,08,17,14,46,27.80
2010,08,17,14,47,27.80
2010,08,17,14,48,27.80
2010,08,17,14,49,27.90
2010,08,17,14,50,27.90
2010,08,17,14,51,27.90
2010,08,17,14,52,27.90
2010,08,17,14,53,28.00
2010,08,17,14,54,28.10
2010,08,17,14,55,28.10
2010,08,17,14,56,28.20
2010,08,17,14,57,28.30
2010,08,17,14,58,28.40
2010,08,17,14,59,28.50
2010,08,17,15,00,28.60
2010,08,17,15,01,28.70
2010,08,17,15,02,28.70
2010,08,17,15,03,28.50
2010,08,17,15,04,28.30
2010,08,17,15,05,28.20
2010,08,17,15,06,28.10
2010,08,17,15,07,28.00
2010,08,17,15,08,27.90
2010,08,17,15,09,27.90
2010,08,17,15,10,27.90
2010,08,17,15,11,27.80
2010,08,17,15,12,27.80
2010,08,17,15,13,27.80
2010,08,17,15,14,27.80
2010,08,17,15,15,27.80
2010,08,17,15,16,27.80
2010,08,17,15,17,27.80
2010,08,17,15,18,27.80
2010,08,17,15,19,27.80
2010,08,17,15,20,27.70
2010,08,17,15,21,27.80
2010,08,17,15,22,27.80
2010,08,17,15,23,27.70
2010,08,17,15,24,27.70
2010,08,17,15,25,27.80
2010,08,17,15,26,27.90
2010,08,17,15,27,27.90
2010,08,17,15,28,27.90
2010,08,17,15,29,27.90
2010,08,17,15,30,28.00
2010,08,17,15,31,28.10
2010,08,17,15,32,28.20
2010,08,17,15,33,28.20
2010,08,17,15,34,28.30
2010,08,17,15,35,28.30
2010,08,17,15,36,28.40
2010,08,17,15,37,28.40
2010,08,17,15,38,28.40
2010,08,17,15,39,28.40
2010,08,17,15,40,28.40
2010,08,17,15,41,28.40
2010,08,17,15,42,28.40
2010,08,17,15,43,28.40
2010,08,17,15,44,28.40
2010,08,17,15,45,28.20
2010,08,17,15,46,28.00
2010,08,17,15,47,27.80
2010,08,17,15,48,27.70
2010,08,17,15,49,27.80
2010,08,17,15,50,27.80
2010,08,17,15,51,27.80
2010,08,17,15,52,27.80
2010,08,17,15,53,27.90
2010,08,17,15,54,28.00
2010,08,17,15,55,28.10
2010,08,17,15,56,28.10
2010,08,17,15,57,28.10
2010,08,17,15,58,28.20
2010,08,17,15,59,28.20
2010,08,17,16,00,28.20
2010,08,17,16,01,28.20
2010,08,17,16,02,28.20
2010,08,17,16,03,28.10
2010,08,17,16,04,28.10
2010,08,17,16,05,28.10
2010,08,17,16,06,28.00
2010,08,17,16,07,27.90
2010,08,17,16,08,27.80
2010,08,17,16,09,27.70
2010,08,17,16,10,27.60
2010,08,17,16,11,27.60
2010,08,17,16,12,27.60
2010,08,17,16,13,27.60
2010,08,17,16,14,27.60
2010,08,17,16,15,27.60
2010,08,17,16,16,27.70
2010,08,17,16,17,27.80
2010,08,17,16,18,27.80
2010,08,17,16,19,27.80
2010,08,17,16,20,27.80
2010,08,17,16,21,27.80
2010,08,17,16,22,27.80
2010,08,17,16,23,27.80
2010,08,17,16,24,27.80
2010,08,17,16,25,27.90
2010,08,17,16,26,28.00
2010,08,17,16,27,28.10
2010,08,17,16,28,28.10
2010,08,17,16,29,28.20
2010,08,17,16,30,28.20
2010,08,17,16,31,28.20
2010,08,17,16,32,28.10
2010,08,17,16,33,28.10
2010,08,17,16,34,28.10
2010,08,17,16,35,28.10
2010,08,17,16,36,28.00
2010,08,17,16,37,27.90
2010,08,17,16,38,27.70
2010,08,17,16,39,27.70
2010,08,17,16,40,27.70
2010,08,17,16,41,27.70
2010,08,17,16,42,27.70
2010,08,17,16,43,27.70
2010,08,17,16,44,27.70
2010,08,17,16,45,27.70
2010,08,17,16,46,27.70
2010,08,17,16,47,27.80
2010,08,17,16,48,27.80
2010,08,17,16,49,27.90
2010,08,17,16,50,27.90
2010,08,17,16,51,28.00
2010,08,17,16,52,28.10
2010,08,17,16,53,28.20
2010,08,17,16,54,28.30
2010,08,17,16,55,28.40
2010,08,17,16,56,28.50
2010,08,17,16,57,28.50
2010,08,17,16,58,28.60
2010,08,17,16,59,28.60
2010,08,17,17,00,28.70
2010,08,17,17,01,28.70
2010,08,17,17,02,28.70
2010,08,17,17,03,28.60
2010,08,17,17,04,28.40
2010,08,17,17,05,28.30
2010,08,17,17,06,28.10
2010,08,17,17,07,28.10
2010,08,17,17,08,28.00
2010,08,17,17,09,28.00
2010,08,17,17,10,28.00
2010,08,17,17,11,28.00
2010,08,17,17,12,28.10
2010,08,17,17,13,28.00
2010,08,17,17,14,28.00
2010,08,17,17,15,27.90
2010,08,17,17,16,27.90
2010,08,17,17,17,27.90
2010,08,17,17,18,28.00
2010,08,17,17,19,28.00